Location: Châteauvieux
(47.2310°N, 1.3828°E)
Time: 23:34:42
(UTC+00:00)

Okean 1 - Pass Details

Date: 15 May 2026
Orbit: 457 x 474 km, 82.5° (Epoch: 11 June)

Event Time Altitude Azimuth Distance (km) Brightness Sun altitude
Exits shadow 21:27:01 37° 132° (SE) 749 3.5 -16.3°
Maximum altitude 21:27:49 45° 94° (E) 659 3.4 -16.3°
Drops below altitude 10° 21:31:16 10° 21° (NNE) 1,651 6.2 -16.7°
Sets 21:33:26 0° 15° (NNE) 2,537 7.3 -16.9°
